Flight Track Log - Related Links

Times and Time Zones

All times are in EST time to prevent confusion due to time zone crossing. See the N300DC flight status page for this flight to view local times or setup timezone preferences in your user account.

Time Position Orientation Groundspeed Altitude Reporting Facility
EST Latitude Longitude Course Direction KTS MPH feet Rate Location/Type
Mon 12:18:07 PM 41.7003 -72.6228 90° East 78 90 1,600  Level Boston Center
Mon 12:18:56 PM 41.6819 -72.6281 192° South 82 94 2,200 689 Climbing Boston Center
Mon 12:19:08 PM 41.6775 -72.6303 200° South 79 91 2,300 818 Climbing Boston Center
Mon 12:20:02 PM 41.6550 -72.6331 185° South 83 96 3,100 800 Climbing Boston Center
Mon 12:20:08 PM 41.6542 -72.6339 217° Southwest 84 97 3,100 985 Level Boston Center
Mon 12:21:09 PM 41.6322 -72.6381 188° South 82 94 4,200 983 Climbing Boston Center
Mon 12:22:00 PM 41.5553 -72.6931 190° South  Level Estimated
Mon 12:22:04 PM 41.6100 -72.6428 189° South 82 94 5,000  Level Boston Center
Mon 12:22:10 PM 41.6089 -72.6436 209° Southwest 86 99 4,900 556 Descending Boston Center
Mon 12:22:58 PM 41.5897 -72.6469 187° South 81 93 5,500 571 Climbing Boston Center
Mon 12:23:00 PM 41.5250 -72.7003 190° South  Level Estimated
Mon 12:23:13 PM 41.5847 -72.6486 194° South 83 96 5,500  Level Boston Center
Mon 12:24:14 PM 41.5631 -72.6533 189° South 79 91 6,000 492 Climbing Boston Center
Mon 12:25:15 PM 41.5419 -72.6594 192° South 79 91 6,500 295 Climbing Boston Center
Mon 12:26:16 PM 41.5183 -72.6669 193° South 87 100 6,600  Climbing Boston Center
Mon 12:27:17 PM 41.4917 -72.6719 188° South 90 104 6,500 -99 Descending Boston Center
Mon 12:28:17 PM 41.4667 -72.6786 191° South 90 104 6,400 -48 Descending Boston Center
Mon 12:29:21 PM 41.4433 -72.6872 195° South 88 101 6,400 48 Level Boston Center
Mon 12:30:21 PM 41.4186 -72.6978 198° South 85 98 6,500  Climbing Boston Center
Mon 12:31:22 PM 41.3936 -72.7058 194° South 92 106 6,400 -49 Descending Boston Center
Mon 12:32:23 PM 41.3686 -72.7114 189° South 94 108 6,400  Level Boston Center
Mon 12:33:24 PM 41.3442 -72.7194 194° South 92 106 6,400 48 Level Boston Center
Mon 12:34:27 PM 41.3183 -72.7267 192° South 91 105 6,500 97 Climbing Boston Center
Mon 12:35:28 PM 41.2947 -72.7350 195° South 86 99 6,600  Climbing Boston Center
Mon 12:36:29 PM 41.2678 -72.7433 193° South 96 110 6,500 -50 Descending Boston Center
Mon 12:37:29 PM 41.2422 -72.7478 187° South 95 109 6,500 50 Level Boston Center
Mon 12:38:30 PM 41.2158 -72.7508 185° South 95 109 6,600 49 Climbing Boston Center
Mon 12:39:32 PM 41.1908 -72.7583 193° South 93 107 6,600 -48 Level Boston Center
Mon 12:40:35 PM 41.1647 -72.7672 194° South 96 110 6,500 -49 Descending Boston Center
Mon 12:41:35 PM 41.1369 -72.7775 196° South 101 116 6,500 49 Level Boston Center
Mon 12:42:38 PM 41.1108 -72.7869 195° South 98 113 6,600 49 Climbing Boston Center
Mon 12:43:38 PM 41.0839 -72.7939 191° South 98 113 6,600 -50 Level Boston Center
Mon 12:44:38 PM 41.0517 -72.8042 194° South 98 113 6,500 -194 Descending Boston Center
Mon 12:45:42 PM 41.0236 -72.8100 189° South 101 116 6,200 -532 Descending Boston Center
Mon 12:46:42 PM 40.9964 -72.8167 190° South 99 114 5,400 -793 Descending Boston Center
Mon 12:47:43 PM 40.9717 -72.8239 192° South 94 108 4,600 -793 Descending Boston Center
Mon 12:48:43 PM 40.9469 -72.8339 197° South 93 107 3,800 -774 Descending Boston Center
Mon 12:49:47 PM 40.9233 -72.8425 195° South 91 105 3,000 -732 Descending Boston Center
Mon 12:50:46 PM 40.9003 -72.8497 193° South 88 101 2,300 -639 Descending Boston Center
Mon 12:51:49 PM 40.8744 -72.8625 201° Southwest 84 97 1,700 -532 Descending Boston Center
Mon 12:52:50 PM 40.8547 -72.8744 205° Southwest 81 93 1,200 -347 Descending Boston Center
Mon 12:53:50 PM 40.8350 -72.8872 206° Southwest 80 92 1,000 -98 Descending Boston Center
Mon 12:54:52 PM 40.8139 -72.8867 179° South 85 98 1,000 -146 Level Boston Center
Mon 12:55:53 PM 40.7981 -72.8619 130° Southeast 89 102 700 -339 Descending Boston Center
Mon 12:56:56 PM 40.8103 -72.8572 16° North 82 94 300 -242 Descending Boston Center
Mon 12:57:57 PM 40.8208 -72.8753 308° West 78 90 200 -98 Descending Boston Center

Login

Don't have an account? Register now (free) for customized features, flight alerts, and more!